This demonstration page uses our WeatherBlox Daily Observations layout. Learn more.

39.01783, -85.05884

Hourly Observations for June 23, 2019

Temp ( °F °C ) Dew Point ( °F °C ) Humidity (%) Winds ( mph kmh ) Pressure ( in mb ) Visibility ( mi km ) Precip ( " mm )
12:52 am 00:52 Clear 65 18.3 58 14.4 78 78 S 3 6 30.06 1018 10 16.09344 0 0
1:52 am 01:52 Clear 65 18.3 58 14.4 78 78 ESE 5 7 30.03 1017 10 16.09344 0 0
2:52 am 02:52 Clear 65 18.3 58 14.4 78 78 Calm 30.03 1017 10 16.09344 0 0
3:52 am 03:52 Clear 64 17.8 58 14.4 81 81 E 6 9 30.03 1017 10 16.09344 0 0
4:52 am 04:52 Partly Cloudy 63 17.2 58 14.4 84 84 E 8 13 30.03 1017 10 16.09344 0 0
5:52 am 05:52 Partly Cloudy 63 17.2 58 14.4 84 84 E 8 13 30 1016 10 16.09344 0 0
6:52 am 06:52 Partly Cloudy 63 17.2 58 14.4 84 84 E 5 7 30 1016 10 16.09344 0 0
7:52 am 07:52 Mostly Cloudy 67 19.4 58 14.4 73 73 ESE 9 15 30 1016 10 16.09344 0 0
8:52 am 08:52 Mostly Cloudy 69 20.6 58 14.4 68 68 SE 9 15 30.03 1017 10 16.09344 0 0
9:52 am 09:52 Mostly Cloudy 71 21.7 58 14.4 63 63 ESE 13 20 30 1016 10 16.09344 0 0
10:52 am 10:52 Mostly Cloudy 73 22.8 60 15.6 64 64 ESE 14 22 29.94 1014 10 16.09344 0 0
11:12 am 11:12 Mostly Cloudy 75 23.9 62 16.7 64 64 S 14 22 30 1016 10 16.09344 0 0
11:52 am 11:52 Mostly Cloudy 74 23.3 63 17.2 69 69 SSE 10 17 29.97 1015 10 16.09344 0 0
12:52 pm 12:52 Mostly Cloudy 78 25.6 66 18.9 67 67 S 10 17 29.97 1015 10 16.09344 0 0
1:52 pm 13:52 Mostly Cloudy 79 26.1 68 20 69 69 S 7 11 29.94 1014 10 16.09344 0 0
3:52 pm 15:52 Mostly Cloudy 83 28.3 70 21.1 65 65 S 8 13 29.91 1013 10 16.09344 0 0
4:52 pm 16:52 Mostly Cloudy 81 27.2 69 20.6 67 67 S 8 13 29.88 1012 10 16.09344 0 0
5:40 pm 17:40 Cloudy with Thunderstorms 78 25.6 64 17.8 62 62 WNW 28 44 29.91 1013 10 16.09344 0 0
5:52 pm 17:52 Mostly Cloudy with Thunderstorms 70 21.1 63 17.2 79 79 WNW 23 37 29.91 1013 3 4.828032 0.001 0.001
6:11 pm 18:11 Cloudy with Thunderstorms 68 20 64 17.8 87 87 SW 8 13 29.94 1014 3 4.828032 0.09 2.286
6:41 pm 18:41 Mostly Cloudy with Light Thunderstorms 68 20 65 18.3 90 90 S 7 11 29.91 1013 8 12.874752 0.15 3.81
6:52 pm 18:52 Mostly Cloudy with Light Rain 69 20.6 66 18.9 90 90 SSE 7 11 29.91 1013 10 16.09344 0.15 3.81
7:52 pm 19:52 Mostly Cloudy with Light Rain 70 21.1 67 19.4 90 90 N 7 11 29.85 1011 10 16.09344 0.01 0.254
8:52 pm 20:52 Mostly Cloudy 70 21.1 67 19.4 90 90 SE 10 17 29.85 1011 10 16.09344 0.001 0.001
9:32 pm 21:32 Mostly Cloudy 69 20.6 67 19.4 93 93 SSE 14 22 29.85 1011 10 16.09344 0 0
9:52 pm 21:52 Mostly Cloudy 69 20.6 67 19.4 93 93 SSE 15 24 29.83 1010 10 16.09344 0 0
10:01 pm 22:01 Mostly Cloudy 69 20.6 66 18.9 90 90 SE 16 26 29.83 1010 10 16.09344 0 0
10:52 pm 22:52 Clear 70 21.1 66 18.9 87 87 SE 16 26 29.83 1010 10 16.09344 0 0
11:52 pm 23:52 Cloudy 70 21.1 65 18.3 84 84 SSE 8 13 29.83 1010 10 16.09344 0 0

Powered by AerisWeather